Regional Weather Roundup
Issued by NWS

Home | Current Version | Previous Version | Text Only | Print | Product List | Glossary Off
Versions: 1 2 3 4 5 6 7 8 9 10 11 12 13 14 15 16 17 18 19 20 21 22 23 24 25 26 27 28 29 30 31 32 33 34 35 36 37 38 39 40 41 42 43 44 45 46 47 48 49 50

000
ASUS43 KTOP 270208
RWRKS

WEATHER ROUNDUP FOR KANSAS
NATIONAL WEATHER SERVICE GOODLAND KS
800 PM CST FRI DEC 26 2014

NOTE:  "FAIR" INDICATES FEW OR NO CLOUDS BELOW 12,000 FEET WITH NO
SIGNIFICANT WEATHER AND/OR OBSTRUCTIONS TO VISIBILITY.

KSZ001>006-013>018-027>032-041>047-270300-
NORTHWEST KANSAS

CITY           SKY/WX    TMP DP  RH WIND       PRES   REMARKS
GOODLAND       CLOUDY    18  16  92 N8        30.07R
HAYS           CLOUDY    27  18  69 N12       30.07R WCI  16
HILL CITY      LGT SNOW  25  21  85 N12       30.11R FOG     WCI  14
RUSSELL        CLOUDY    27  26  96 NW12      30.06R WCI  17
$$

KSZ061>065-074>080-084>089-270300-
SOUTHWEST KANSAS

CITY           SKY/WX    TMP DP  RH WIND       PRES   REMARKS
DODGE CITY     CLOUDY    26  23  88 NW10      30.08R WCI  16
ELKHART          N/A     23  18  81 NW5         N/A
GARDEN CITY    FLURRIES  23  21  92 N9        30.08R
GREAT BEND     CLOUDY    28  23  80 NW10      30.07R WCI  19
LIBERAL        CLOUDY    27  19  74 NW8       30.11R
PRATT          CLOUDY    30  28  93 NW9       30.07R
$$

KSZ066>073-081>083-090>101-270300-
SOUTHEAST KANSAS

CITY           SKY/WX    TMP DP  RH WIND       PRES   REMARKS
CHANUTE        CLOUDY    42  38  85 NW9       29.98R
COFFEYVILLE    CLOUDY    48  43  82 NW13      29.98R
HUTCHINSON     CLOUDY    32  29  88 NW12      30.04R WCI  23
MEDICINE LODGE   N/A     32  28  85 NW14G23   30.06R WCI  22
NEWTON         CLOUDY    32  27  80 N12       30.03R WCI  23
PARSONS        CLOUDY    46  43  89 NW7       29.99R
WICHITA INTL   CLOUDY    35  30  82 NW13      30.05R WCI  26
WICHITA JABRA  CLOUDY    34  31  88 NW10      30.03R WCI  26
WICHITA MCCONL CLOUDY    35  31  88 NW10      30.04R WCI  27
WINFIELD       CLOUDY    38  34  85 NW12      30.05R WCI  30
$$

KSZ007>012-019>026-033>040-048>060-102>105-270300-
NORTHEAST KANSAS

CITY           SKY/WX    TMP DP  RH WIND       PRES   REMARKS
CONCORDIA      LGT SNOW  29  29 100 NW7       30.04R FOG
EMPORIA        CLOUDY    36  32  85 N7        29.98R
LAWRENCE       CLOUDY    38  33  82 N8        29.99S
MANHATTAN      CLOUDY    34  31  88 N7        30.01R
MARYSVILLE     CLOUDY    32  32 100 NW8       30.03R FOG
OLATHE IND     CLOUDY    39  35  86 NW8       29.98R
OLATHE EXE     LGT RAIN  40  36  86 NW12      29.97R WCI  33
SALINA         CLOUDY    32  30  92 NW12      30.04R FOG     WCI  23
TOPEKA BILLARD CLOUDY    38  33  82 NW5       30.01R
TOPEKA FORBES  CLOUDY    38  32  79 N6        29.99R
$$



USA.gov is the U.S. government's official web portal to all federal, state and local government web resources and services.